Погода в Нинорово

Россия / Ярославская область     57°38′29″N   38°16′36″E
темп.,
°C
ветер,
м/с
пор.,
м/с
влажн.,
%
обл.,
%
осадки,
мм/ч
давл.,
гПа
погр.,
м
5 августа, чт
чт500:00+14ссз116694 0.0 101712
03:00+15ю1160100 0.0 101711
06:00+15ююв2261100 0.0 101735
09:00+17ююв2355100 0.0 1018372
12:00+22юв2343100 0.0 10171912
15:00+22вюв3341100 0.0 10161284
18:00+21в4746100 0.0 1015517
21:00+16ююв2379100 0.6 101476
6 августа, пт
пт600:00+15ююв2694100 0.3 1014202
03:00+14юв3895100 0.8 1013376
06:00+14в259698 0.3 1013218
09:00+17вюв338112 0.3 1012456
12:00+23ююв345499 0.1 10111458
15:00+23ююз1257100 0.4 1011962
18:00+20вюв2380100 1.3 101184
21:00+17ю3697100 3.0 1011180
7 августа, сб
сб700:00+17юв2699100 3.8 1012250
03:00+16в3898100 4.1 1011352
06:00+17в4998100 0.2 1011408
09:00+17в61195100 0.3 1011546
12:00+20вюв698499 0.9 1010840
15:00+23юв6976100 1.9 1010900
18:00+23юв6974100 0.1 1009775
21:00+19юв61295100 0.9 1009408
8 августа, вс
вс800:00+17вюв4897100 2.6 1010217
03:00+16ююв349563 2.6 101081
06:00+17ююз359899 0.0 1010162
09:00+20зюз467798 0.0 1011523
12:00+23юз4550100 0.0 10121132
15:00+23юз465160 0.0 10131502
18:00+21з5765100 0.0 1014624
21:00+19з2673100 0.0 1016258
9 августа, пн
пн900:00+18зюз2480100 0.0 1016125
03:00+16з2489100 0.1 1017115
06:00+16зюз2487100 0.0 1017173
09:00+20юз337083 0.0 1018624
12:00+24зюз345357 0.0 10181579
15:00+26з444220 0.0 10171979
18:00+26з234596 0.0 10171543
21:00+19вюв227085 0.0 101723